Regional Weather Roundup
Issued by NWS Sterling, VA

Home | Current Version | Previous Version | Graphics & Text | Print | Product List | Glossary On
Versions: 1 2 3 4 5 6 7 8 9 10 11 12 13 14 15 16 17 18 19 20 21 22 23 24 25 26 27 28 29 30 31 32 33 34 35 36 37 38 39 40 41
000
ASUS41 KLWX 261510
RWRLWX

REGIONAL WEATHER ROUNDUP
NATIONAL WEATHER SERVICE BALTIMORE MD/WASHINGTON DC
1000 AM EST FRI DEC 26 2014

Note: "FAIR" indicates few or no clouds below 12,000 feet
with no significant weather and/or obstructions to visibility.
 TC=TEMPERATURE CELSIUS

 * =Non NWS site. Station does not report precipitation (e.g. rain,
    snow, etc.), thunder, or fog.

DCZ001-MDZ009-015-VAZ040>042-051-053>054-261600-
WASHINGTON METRO

CITY           SKY/WX    TMP DP  RH WIND       PRES   REMARKS
WASHINGTON NAT MOSUNNY   43  33  68 SE3       30.36R
DULLES         MOSUNNY   39  31  72 CALM      30.35R
ANDREWS AFB    SUNNY     44  31  61 W6        30.35R
FT BELVOIR     SUNNY     42  32  66 W2        30.37R
QUANTICO       SUNNY     38  33  82 E3        30.38R
COLLEGE PARK*  SUNNY     43  32  65 CALM      30.35R
LEESBURG*      SUNNY     43  34  70 CALM      30.36R
MANASSAS*      SUNNY     37  34  87 CALM      30.37R
GAITHERSBURG*  SUNNY     39  30  70 W7        30.37S

$$

MDZ006>007-011-014-261600-
BALTIMORE METRO

CITY           SKY/WX    TMP DP  RH WIND       PRES   REMARKS
BWI AIRPORT    MOSUNNY   44  31  60 W6        30.34R
MD SCIENCE CTR   N/A     44  30  57 MISG      30.37R
MARTIN STATE   SUNNY     45  36  70 CALM      30.36R
ANNAPOLIS      SUNNY     42  32  67 N3        30.35R
FORT MEADE*    SUNNY     37  32  81 SW5       30.37R

$$

MDZ012-015-019>023-261600-
MARYLAND EASTERN SHORE

CITY           SKY/WX    TMP DP  RH WIND       PRES   REMARKS
OCEAN CITY     SUNNY     44  34  67 NW5       30.35R
SALISBURY      SUNNY     47  35  63 CALM      30.35R
BAY BRIDGE AP*   N/A     41  32  70 W3        30.36R
CAMBRIDGE*     SUNNY     43  37  81 CALM      30.34R

$$

MDZ017>025-261600-
SOUTHERN MARYLAND

CITY           SKY/WX    TMP DP  RH WIND       PRES   REMARKS
PATUXENT RIVER PTSUNNY   44  33  65 SW5       30.35R
ST INIGOES     SUNNY     43  36  76 CALM      30.35R
LEONARDTOWN*   SUNNY     43  32  65 MISG        N/A

$$

MDZ003>005-261600-
NORTH CENTRAL MARYLAND

CITY           SKY/WX    TMP DP  RH WIND       PRES   REMARKS
FREDERICK*     SUNNY     45  30  57 SW7       30.36S
HAGERSTOWN APT SUNNY     41  29  62 W5        30.32R
WESTMINSTER*   SUNNY     39  30  70 W6        30.31R

$$

MDZ501>502-261600-
WESTERN MARYLAND

CITY           SKY/WX    TMP DP  RH WIND       PRES   REMARKS
OAKLAND*       SUNNY     34 N/A N/A W7        30.25R
CUMBERLAND*    SUNNY     34  32  93 CALM      30.37R

$$

VAZ025>031-261600-
SHENANDOAH VALLEY

CITY           SKY/WX    TMP DP  RH WIND       PRES   REMARKS
WINCHESTER*    SUNNY     37  28  70 S5        30.33R
FRONT ROYAL*   FAIR      36  32  87 CALM      30.33R
LURAY*         FAIR      36  32  87 CALM      30.32S
NEW MARKET*    FAIR      33  29  85 CALM      30.31S
STAUNTON*      SUNNY     36  31  82 CALM      30.33R
WAYNESBORO*    FAIR      36  30  77 CALM      30.30R

$$

WVZ021-048>050-054>055-261600-
EASTERN WEST VIRGINIA PANHANDLE

CITY           SKY/WX    TMP DP  RH WIND       PRES   REMARKS
MARTINSBURG    SUNNY     40  29  64 S5        30.33S
PETERSBURG*    SUNNY     32  30  94 CALM      30.34S

$$

VAZ036>039-050-261600-
CENTRAL FOOTHILLS

CITY           SKY/WX    TMP DP  RH WIND       PRES   REMARKS
CHARLOTTESVILL SUNNY     38  30  73 CALM      30.32R
CULPEPER*      SUNNY     37  34  87 CALM      30.36R
ORANGE*        SUNNY     41  32  70 CALM      30.35R
GORDONSVILLE*  FAIR      40  32  74 SW3       30.34R
WARRENTON*     FAIR      40  37  89 CALM      30.36R

$$

VAZ055>057-261600-
NORTH AND CENTRAL PIEDMONT

CITY           SKY/WX    TMP DP  RH WIND       PRES   REMARKS
FREDERICKSBRG* SUNNY     39  34  82 CALM      30.35R
STAFFORD*      SUNNY     40  38  91 CALM      30.40R

$$

NCZ024-NYZ072-PAZ021-071-VAZ022-071-261600-
OTHER REGIONAL OBSERVATIONS

CITY           SKY/WX    TMP DP  RH WIND       PRES   REMARKS
NEW YORK CITY  SUNNY     43  27  53 W9        30.27S
PHILADELPHIA   MOSUNNY   43  29  57 W8        30.34R
PITTSBURGH     MOSUNNY   36  30  79 S6        30.28F
ROANOKE        MOSUNNY   41  31  67 N5        30.35R
RICHMOND       MOSUNNY   46  34  62 SE3       30.34S
RALEIGH        MOSUNNY   42  35  76 CALM      30.36S

$$

ANZ530>537-261600-
MARINE OBSERVATIONS

STATION/POSITION TIME  TEMP    WIND        PRES
                       AIR SEA DIR/SP/G
                 (UTC) (F)     (DEG/KT/KT) (MB)
THOMAS PT LIGHT  1500   40 43  270/  3/  3 1029.0R
BALT KEY BRIDGE  1500   41     240/  4/  5 1027.6R
COVE POINT       1500   47     280/  1/  3 1027.7R
LEWISETTA        1500   44 44     CALM     1027.7R
SOLOMONS ISLAND  1500      43                N/A
PINEY POINT      1500          230/  1/  2   N/A

$$




USA.gov is the U.S. government's official web portal to all federal, state and local government web resources and services.